contact: severine.martini@mio.osupytheas.fr, dominique.lefevre@mio.osupytheas.fr
Project:EMSO Ligure-ouest http://www.emso-fr.org/EMSO-France
Sensor Optode, line 4330 Serial 272 
DOI : "https://doi.org/10.17882/97948" 
Title:EMSO Ligure Ouest : Data BathyDock capteur Optode - deploiement "2023-04-28"
Datetime,Profondeur,Latitude,Longitude,optode_type,serial,O2_concentration,O2_saturation,Temperature,Calibrated_Phase,Temp_Compensated_Phase,phase_blue_light,phase_red_light,Amplitude_blue_light,Amplitude_red_light,thermistor_bridge
time,m,degree_north,degree_east,1,1,umol.l-1,%,degree_C,degree,degree,degree,degree,mV,mV,mV
2023-12-23T00:00:07,2420,42.8014,5.9826,4330,272,186.153,57.018,13.313,36.058,36.638,41.222,4.585,295.8,545.3,291.1
2023-12-23T00:03:07,2420,42.8014,5.9826,4330,272,186.249,57.050,13.316,36.051,36.631,41.216,4.585,295.8,545.3,291.0
2023-12-23T00:06:07,2420,42.8014,5.9826,4330,272,186.453,57.109,13.313,36.039,36.619,41.207,4.588,295.8,545.3,291.1
2023-12-23T00:09:07,2420,42.8014,5.9826,4330,272,186.150,57.017,13.314,36.058,36.638,41.224,4.585,295.8,545.3,291.1
2023-12-23T00:12:07,2420,42.8014,5.9826,4330,272,186.039,56.982,13.313,36.066,36.646,41.238,4.593,295.8,545.2,291.1
2023-12-23T00:15:07,2420,42.8014,5.9826,4330,272,186.279,57.056,13.313,36.050,36.630,41.217,4.587,295.8,545.2,291.1
2023-12-23T00:18:08,2420,42.8014,5.9826,4330,272,186.119,57.008,13.314,36.060,36.640,41.230,4.590,295.8,545.3,291.1
2023-12-23T00:21:08,2420,42.8014,5.9826,4330,272,186.381,57.087,13.313,36.044,36.624,41.214,4.590,295.8,545.3,291.1
2023-12-23T00:24:08,2420,42.8014,5.9826,4330,272,186.301,57.062,13.312,36.049,36.629,41.213,4.584,295.8,545.3,291.1
2023-12-23T00:27:08,2420,42.8014,5.9826,4330,272,186.308,57.063,13.312,36.049,36.629,41.219,4.590,295.8,545.3,291.2
2023-12-23T00:30:07,2420,42.8014,5.9826,4330,272,186.345,57.076,13.313,36.046,36.626,41.208,4.582,295.8,545.2,291.1
2023-12-23T00:33:07,2420,42.8014,5.9826,4330,272,186.292,57.065,13.317,36.047,36.627,41.219,4.592,295.7,545.3,291.0
2023-12-23T00:36:07,2420,42.8014,5.9826,4330,272,185.967,56.960,13.313,36.070,36.650,41.235,4.585,295.8,545.3,291.1
2023-12-23T00:39:08,2420,42.8014,5.9826,4330,272,186.200,57.037,13.317,36.053,36.633,41.226,4.593,295.8,545.3,291.0
2023-12-23T00:42:08,2420,42.8014,5.9826,4330,272,186.399,57.092,13.313,36.042,36.622,41.212,4.590,295.9,545.2,291.1
2023-12-23T00:45:08,2420,42.8014,5.9826,4330,272,186.317,57.066,13.312,36.049,36.629,41.217,4.588,295.8,545.3,291.2
2023-12-23T00:48:07,2420,42.8014,5.9826,4330,272,186.258,57.045,13.310,36.053,36.633,41.224,4.591,295.8,545.3,291.2
2023-12-23T00:51:07,2420,42.8014,5.9826,4330,272,186.046,56.986,13.314,36.065,36.645,41.228,4.584,295.8,545.3,291.1
2023-12-23T00:54:07,2420,42.8014,5.9826,4330,272,186.425,57.102,13.314,36.041,36.621,41.209,4.588,295.8,545.3,291.1
2023-12-23T00:57:07,2420,42.8014,5.9826,4330,272,186.161,57.023,13.316,36.057,36.637,41.215,4.579,295.8,545.2,291.0
2023-12-23T01:00:08,2420,42.8014,5.9826,4330,272,186.115,57.005,13.313,36.061,36.641,41.226,4.585,295.9,545.2,291.1
2023-12-23T01:03:07,2420,42.8014,5.9826,4330,272,186.312,57.067,13.313,36.048,36.628,41.215,4.588,295.8,545.3,291.1
2023-12-23T01:06:07,2420,42.8014,5.9826,4330,272,186.415,57.100,13.315,36.040,36.620,41.208,4.588,295.8,545.3,291.1
2023-12-23T01:09:07,2420,42.8014,5.9826,4330,272,186.330,57.068,13.310,36.048,36.628,41.215,4.587,295.8,545.4,291.2
2023-12-23T01:12:08,2420,42.8014,5.9826,4330,272,186.539,57.131,13.310,36.035,36.615,41.205,4.591,295.8,545.4,291.2
2023-12-23T01:15:07,2420,42.8014,5.9826,4330,272,186.337,57.070,13.310,36.048,36.628,41.219,4.591,295.8,545.3,291.2
2023-12-23T01:18:07,2420,42.8014,5.9826,4330,272,186.057,56.984,13.310,36.066,36.646,41.230,4.584,295.7,545.3,291.2
2023-12-23T01:21:07,2420,42.8014,5.9826,4330,272,186.448,57.102,13.309,36.041,36.621,41.210,4.589,295.8,545.3,291.3
2023-12-23T01:24:07,2420,42.8014,5.9826,4330,272,186.347,57.075,13.311,36.046,36.626,41.215,4.588,295.8,545.3,291.2
2023-12-23T01:27:07,2420,42.8014,5.9826,4330,272,186.302,57.061,13.312,36.049,36.629,41.219,4.590,295.8,545.3,291.2
2023-12-23T01:30:08,2420,42.8014,5.9826,4330,272,186.187,57.028,13.313,36.056,36.636,41.226,4.590,295.9,545.3,291.1
2023-12-23T01:33:07,2420,42.8014,5.9826,4330,272,186.345,57.074,13.311,36.046,36.626,41.217,4.590,295.8,545.3,291.2
2023-12-23T01:36:08,2420,42.8014,5.9826,4330,272,186.204,57.028,13.309,36.057,36.637,41.224,4.587,295.8,545.3,291.3
2023-12-23T01:39:08,2420,42.8014,5.9826,4330,272,186.440,57.104,13.312,36.040,36.620,41.212,4.592,295.8,545.3,291.2
2023-12-23T01:42:08,2420,42.8014,5.9826,4330,272,186.313,57.067,13.314,36.047,36.627,41.220,4.593,295.8,545.2,291.1
2023-12-23T01:45:07,2420,42.8014,5.9826,4330,272,186.093,56.998,13.312,36.063,36.643,41.225,4.583,295.8,545.3,291.2
2023-12-23T01:48:07,2420,42.8014,5.9826,4330,272,186.066,56.992,13.314,36.064,36.644,41.230,4.586,295.8,545.3,291.1
2023-12-23T01:51:07,2420,42.8014,5.9826,4330,272,186.427,57.106,13.317,36.038,36.619,41.212,4.593,295.7,545.3,291.0
2023-12-23T01:54:07,2420,42.8014,5.9826,4330,272,186.135,57.007,13.309,36.061,36.641,41.230,4.589,295.8,545.3,291.3
2023-12-23T01:57:08,2420,42.8014,5.9826,4330,272,186.432,57.099,13.310,36.042,36.622,41.213,4.591,295.9,545.3,291.2
2023-12-23T02:00:08,2420,42.8014,5.9826,4330,272,185.859,56.927,13.313,36.078,36.657,41.243,4.586,295.8,545.3,291.1
2023-12-23T02:03:07,2420,42.8014,5.9826,4330,272,186.458,57.111,13.313,36.038,36.618,41.204,4.585,295.8,545.3,291.1
2023-12-23T02:06:07,2420,42.8014,5.9826,4330,272,186.344,57.078,13.314,36.045,36.625,41.216,4.591,295.8,545.3,291.1
2023-12-23T02:09:07,2420,42.8014,5.9826,4330,272,186.440,57.110,13.317,36.038,36.618,41.205,4.587,295.8,545.3,291.0
2023-12-23T02:12:07,2420,42.8014,5.9826,4330,272,186.176,57.029,13.317,36.055,36.635,41.224,4.589,295.9,545.3,291.0
2023-12-23T02:15:07,2420,42.8014,5.9826,4330,272,186.280,57.056,13.313,36.050,36.630,41.217,4.587,295.8,545.3,291.1
2023-12-23T02:18:07,2420,42.8014,5.9826,4330,272,186.477,57.114,13.311,36.038,36.618,41.208,4.590,295.8,545.3,291.2
2023-12-23T02:21:08,2420,42.8014,5.9826,4330,272,186.224,57.035,13.310,36.055,36.635,41.227,4.591,295.8,545.3,291.2
2023-12-23T02:24:08,2420,42.8014,5.9826,4330,272,185.984,56.962,13.310,36.071,36.650,41.234,4.583,295.7,545.4,291.2
2023-12-23T02:27:08,2420,42.8014,5.9826,4330,272,186.013,56.970,13.310,36.069,36.649,41.235,4.586,295.7,545.3,291.2
2023-12-23T02:30:08,2420,42.8014,5.9826,4330,272,186.174,57.020,13.310,36.058,36.638,41.224,4.586,295.8,545.3,291.2
2023-12-23T02:33:07,2420,42.8014,5.9826,4330,272,186.265,57.049,13.311,36.052,36.632,41.223,4.591,295.8,545.3,291.2
2023-12-23T02:36:07,2420,42.8014,5.9826,4330,272,186.574,57.144,13.312,36.032,36.612,41.198,4.586,295.7,545.3,291.2
2023-12-23T02:39:07,2420,42.8014,5.9826,4330,272,186.252,57.043,13.310,36.053,36.633,41.219,4.586,295.8,545.4,291.2
2023-12-23T02:42:07,2420,42.8014,5.9826,4330,272,186.530,57.127,13.309,36.036,36.616,41.204,4.588,295.7,545.4,291.3
2023-12-23T02:45:07,2420,42.8014,5.9826,4330,272,186.534,57.128,13.308,36.036,36.616,41.205,4.589,295.8,545.4,291.3
2023-12-23T02:48:08,2420,42.8014,5.9826,4330,272,186.301,57.062,13.313,36.048,36.628,41.216,4.588,295.8,545.4,291.1
2023-12-23T02:51:08,2420,42.8014,5.9826,4330,272,186.402,57.091,13.311,36.043,36.623,41.217,4.593,295.8,545.3,291.2
2023-12-23T02:54:08,2420,42.8014,5.9826,4330,272,186.232,57.036,13.309,36.055,36.635,41.223,4.588,295.8,545.3,291.3
2023-12-23T02:57:08,2420,42.8014,5.9826,4330,272,186.070,56.989,13.310,36.065,36.645,41.234,4.588,295.8,545.3,291.2
2023-12-23T03:00:07,2420,42.8014,5.9826,4330,272,186.634,57.159,13.309,36.030,36.610,41.198,4.589,295.8,545.4,291.3
2023-12-23T03:03:07,2420,42.8014,5.9826,4330,272,186.337,57.068,13.308,36.049,36.629,41.214,4.585,295.8,545.4,291.3
2023-12-23T03:06:08,2420,42.8014,5.9826,4330,272,186.424,57.094,13.308,36.043,36.623,41.214,4.591,295.7,545.3,291.3
2023-12-23T03:09:07,2420,42.8014,5.9826,4330,272,186.281,57.052,13.309,36.052,36.632,41.221,4.589,295.8,545.3,291.3
2023-12-23T03:12:07,2420,42.8014,5.9826,4330,272,186.166,57.018,13.311,36.058,36.638,41.223,4.584,295.8,545.4,291.2
2023-12-23T03:15:08,2420,42.8014,5.9826,4330,272,186.220,57.032,13.308,36.056,36.636,41.225,4.590,295.8,545.4,291.3
2023-12-23T03:18:07,2420,42.8014,5.9826,4330,272,186.277,57.048,13.307,36.053,36.633,41.223,4.590,295.8,545.3,291.3
2023-12-23T03:21:07,2420,42.8014,5.9826,4330,272,186.425,57.094,13.308,36.044,36.624,41.212,4.588,295.7,545.3,291.3
2023-12-23T03:24:07,2420,42.8014,5.9826,4330,272,186.494,57.119,13.311,36.038,36.618,41.209,4.592,295.7,545.4,291.2
2023-12-23T03:27:07,2420,42.8014,5.9826,4330,272,186.247,57.038,13.307,36.055,36.635,41.220,4.585,295.8,545.4,291.3
2023-12-23T03:30:08,2420,42.8014,5.9826,4330,272,186.275,57.046,13.306,36.054,36.634,41.225,4.591,295.8,545.3,291.4
2023-12-23T03:33:07,2420,42.8014,5.9826,4330,272,186.402,57.084,13.305,36.046,36.626,41.210,4.584,295.8,545.3,291.4
2023-12-23T03:36:07,2420,42.8014,5.9826,4330,272,186.483,57.110,13.306,36.041,36.621,41.207,4.587,295.8,545.3,291.4
2023-12-23T03:39:07,2420,42.8014,5.9826,4330,272,186.529,57.125,13.307,36.037,36.617,41.208,4.592,295.8,545.3,291.3
2023-12-23T03:42:08,2420,42.8014,5.9826,4330,272,186.386,57.080,13.306,36.047,36.627,41.213,4.586,295.8,545.4,291.4
2023-12-23T03:45:08,2420,42.8014,5.9826,4330,272,186.248,57.039,13.307,36.055,36.635,41.219,4.584,295.7,545.4,291.3
2023-12-23T03:48:08,2420,42.8014,5.9826,4330,272,186.300,57.053,13.306,36.053,36.633,41.217,4.584,295.8,545.4,291.4
2023-12-23T03:51:07,2420,42.8014,5.9826,4330,272,186.318,57.059,13.306,36.051,36.631,41.215,4.584,295.8,545.4,291.4
2023-12-23T03:54:07,2420,42.8014,5.9826,4330,272,186.556,57.134,13.307,36.035,36.615,41.195,4.580,295.7,545.3,291.3
2023-12-23T03:57:07,2420,42.8014,5.9826,4330,272,186.397,57.083,13.306,36.045,36.625,41.213,4.587,295.8,545.3,291.4
2023-12-23T04:00:07,2420,42.8014,5.9826,4330,272,186.353,57.071,13.307,36.048,36.628,41.220,4.592,295.9,545.3,291.3
2023-12-23T04:03:07,2420,42.8014,5.9826,4330,272,186.643,57.163,13.310,36.028,36.608,41.195,4.587,295.8,545.4,291.2
2023-12-23T04:06:07,2420,42.8014,5.9826,4330,272,186.528,57.125,13.307,36.036,36.616,41.199,4.582,295.8,545.3,291.3
2023-12-23T04:09:08,2420,42.8014,5.9826,4330,272,186.556,57.135,13.308,36.034,36.615,41.201,4.587,295.8,545.3,291.3
2023-12-23T04:12:07,2420,42.8014,5.9826,4330,272,186.346,57.074,13.311,36.047,36.627,41.214,4.587,295.7,545.3,291.2
2023-12-23T04:15:07,2420,42.8014,5.9826,4330,272,186.439,57.104,13.312,36.040,36.620,41.211,4.591,295.8,545.4,291.2
2023-12-23T04:18:07,2420,42.8014,5.9826,4330,272,186.400,57.091,13.312,36.043,36.623,41.216,4.593,295.7,545.3,291.2
2023-12-23T04:21:07,2420,42.8014,5.9826,4330,272,186.527,57.124,13.307,36.037,36.617,41.206,4.589,295.7,545.4,291.3
2023-12-23T04:24:08,2420,42.8014,5.9826,4330,272,186.531,57.124,13.306,36.037,36.617,41.207,4.590,295.7,545.3,291.4
2023-12-23T04:27:08,2420,42.8014,5.9826,4330,272,186.573,57.138,13.307,36.034,36.614,41.198,4.584,295.8,545.4,291.3
2023-12-23T04:30:08,2420,42.8014,5.9826,4330,272,186.210,57.030,13.309,36.057,36.636,41.222,4.586,295.8,545.2,291.3
2023-12-23T04:33:07,2420,42.8014,5.9826,4330,272,186.382,57.079,13.306,36.047,36.627,41.212,4.585,295.8,545.4,291.3
2023-12-23T04:36:07,2420,42.8014,5.9826,4330,272,186.198,57.023,13.307,36.058,36.638,41.227,4.589,295.8,545.4,291.3
2023-12-23T04:39:07,2420,42.8014,5.9826,4330,272,186.417,57.089,13.306,36.045,36.625,41.214,4.589,295.7,545.3,291.4
2023-12-23T04:42:07,2420,42.8014,5.9826,4330,272,186.573,57.138,13.307,36.034,36.614,41.202,4.587,295.8,545.3,291.3
2023-12-23T04:45:08,2420,42.8014,5.9826,4330,272,186.579,57.138,13.305,36.034,36.614,41.204,4.590,295.8,545.3,291.4
2023-12-23T04:48:08,2420,42.8014,5.9826,4330,272,186.341,57.065,13.305,36.050,36.630,41.214,4.585,295.8,545.4,291.4
2023-12-23T04:51:08,2420,42.8014,5.9826,4330,272,186.266,57.049,13.311,36.052,36.632,41.217,4.585,295.7,545.4,291.2
2023-12-23T04:54:08,2420,42.8014,5.9826,4330,272,186.312,57.060,13.308,36.050,36.630,41.215,4.585,295.8,545.4,291.3
2023-12-23T04:57:07,2420,42.8014,5.9826,4330,272,186.689,57.172,13.306,36.027,36.607,41.200,4.593,295.8,545.4,291.4
2023-12-23T05:00:07,2420,42.8014,5.9826,4330,272,186.318,57.059,13.306,36.051,36.631,41.215,4.584,295.7,545.4,291.4
2023-12-23T05:03:08,2420,42.8014,5.9826,4330,272,186.558,57.139,13.311,36.033,36.613,41.201,4.588,295.7,545.4,291.2
2023-12-23T05:06:08,2420,42.8014,5.9826,4330,272,186.537,57.124,13.304,36.037,36.617,41.201,4.584,295.8,545.4,291.4
2023-12-23T05:09:07,2420,42.8014,5.9826,4330,272,186.774,57.196,13.304,36.022,36.603,41.193,4.591,295.7,545.4,291.4
2023-12-23T05:12:07,2420,42.8014,5.9826,4330,272,186.585,57.141,13.306,36.033,36.613,41.204,4.591,295.7,545.4,291.3
2023-12-23T05:15:07,2420,42.8014,5.9826,4330,272,186.458,57.099,13.303,36.043,36.623,41.212,4.589,295.6,545.4,291.4
2023-12-23T05:18:07,2420,42.8014,5.9826,4330,272,186.406,57.085,13.305,36.045,36.625,41.210,4.585,295.7,545.4,291.4
2023-12-23T05:21:08,2420,42.8014,5.9826,4330,272,186.374,57.076,13.306,36.047,36.627,41.213,4.586,295.7,545.4,291.4
2023-12-23T05:24:08,2420,42.8014,5.9826,4330,272,186.252,57.038,13.306,36.056,36.636,41.222,4.586,295.8,545.3,291.4
2023-12-23T05:27:08,2420,42.8014,5.9826,4330,272,186.406,57.086,13.306,36.045,36.625,41.212,4.587,295.8,545.4,291.4
2023-12-23T05:30:08,2420,42.8014,5.9826,4330,272,186.486,57.109,13.305,36.041,36.621,41.211,4.590,295.7,545.3,291.4
2023-12-23T05:33:07,2420,42.8014,5.9826,4330,272,186.361,57.073,13.306,36.048,36.627,41.210,4.583,295.7,545.4,291.3
2023-12-23T05:36:07,2420,42.8014,5.9826,4330,272,186.391,57.087,13.310,36.044,36.624,41.209,4.585,295.7,545.4,291.2
2023-12-23T05:39:07,2420,42.8014,5.9826,4330,272,186.536,57.123,13.304,36.038,36.618,41.205,4.587,295.7,545.4,291.4
2023-12-23T05:42:08,2420,42.8014,5.9826,4330,272,186.408,57.086,13.305,36.046,36.626,41.210,4.585,295.7,545.4,291.4
2023-12-23T05:45:08,2420,42.8014,5.9826,4330,272,186.243,57.038,13.307,36.055,36.635,41.219,4.585,295.7,545.4,291.3
2023-12-23T05:48:08,2420,42.8014,5.9826,4330,272,186.676,57.165,13.303,36.029,36.609,41.200,4.591,295.7,545.3,291.4
2023-12-23T05:51:08,2420,42.8014,5.9826,4330,272,186.410,57.085,13.305,36.046,36.626,41.215,4.589,295.8,545.3,291.4
2023-12-23T05:54:07,2420,42.8014,5.9826,4330,272,186.619,57.152,13.307,36.031,36.611,41.198,4.587,295.7,545.3,291.3
2023-12-23T05:57:07,2420,42.8014,5.9826,4330,272,186.571,57.135,13.305,36.035,36.615,41.200,4.585,295.7,545.4,291.4
2023-12-23T06:00:07,2420,42.8014,5.9826,4330,272,186.461,57.100,13.304,36.043,36.623,41.210,4.587,295.7,545.4,291.4
2023-12-23T06:03:07,2420,42.8014,5.9826,4330,272,186.470,57.103,13.304,36.042,36.622,41.215,4.593,295.7,545.4,291.4
2023-12-23T06:06:07,2420,42.8014,5.9826,4330,272,186.293,57.050,13.305,36.053,36.633,41.219,4.586,295.8,545.4,291.4
2023-12-23T06:09:07,2420,42.8014,5.9826,4330,272,186.724,57.181,13.304,36.025,36.605,41.197,4.592,295.6,545.4,291.4
2023-12-23T06:12:08,2420,42.8014,5.9826,4330,272,186.633,57.152,13.303,36.032,36.612,41.201,4.588,295.7,545.4,291.5
2023-12-23T06:15:08,2420,42.8014,5.9826,4330,272,186.343,57.063,13.303,36.051,36.631,41.211,4.580,295.7,545.4,291.4
2023-12-23T06:18:08,2420,42.8014,5.9826,4330,272,186.360,57.073,13.307,36.048,36.628,41.215,4.587,295.7,545.4,291.3
2023-12-23T06:21:07,2420,42.8014,5.9826,4330,272,186.834,57.219,13.307,36.017,36.597,41.184,4.587,295.8,545.4,291.3
2023-12-23T06:24:07,2420,42.8014,5.9826,4330,272,186.406,57.085,13.305,36.045,36.625,41.211,4.586,295.7,545.3,291.4
2023-12-23T06:27:07,2420,42.8014,5.9826,4330,272,186.341,57.063,13.304,36.051,36.631,41.219,4.589,295.7,545.3,291.4
2023-12-23T06:30:08,2420,42.8014,5.9826,4330,272,186.448,57.099,13.306,36.042,36.622,41.208,4.586,295.7,545.3,291.4
2023-12-23T06:33:07,2420,42.8014,5.9826,4330,272,186.593,57.141,13.304,36.034,36.614,41.205,4.591,295.7,545.3,291.4
2023-12-23T06:36:07,2420,42.8014,5.9826,4330,272,186.518,57.119,13.305,36.039,36.619,41.208,4.589,295.8,545.3,291.4
2023-12-23T06:39:07,2420,42.8014,5.9826,4330,272,186.424,57.090,13.305,36.044,36.624,41.213,4.589,295.7,545.4,291.4
2023-12-23T06:42:07,2420,42.8014,5.9826,4330,272,186.305,57.052,13.304,36.053,36.633,41.218,4.585,295.8,545.4,291.4
2023-12-23T06:45:07,2420,42.8014,5.9826,4330,272,186.500,57.114,13.305,36.040,36.620,41.207,4.587,295.6,545.4,291.4
2023-12-23T06:48:08,2420,42.8014,5.9826,4330,272,186.300,57.053,13.306,36.053,36.633,41.220,4.587,295.8,545.4,291.4
2023-12-23T06:51:08,2420,42.8014,5.9826,4330,272,186.568,57.134,13.305,36.035,36.615,41.204,4.589,295.8,545.4,291.4
2023-12-23T06:54:08,2420,42.8014,5.9826,4330,272,186.402,57.083,13.305,36.046,36.626,41.218,4.591,295.7,545.4,291.4
2023-12-23T06:57:07,2420,42.8014,5.9826,4330,272,186.550,57.128,13.305,36.037,36.617,41.204,4.587,295.7,545.4,291.4
2023-12-23T07:00:07,2420,42.8014,5.9826,4330,272,186.646,57.156,13.303,36.031,36.611,41.198,4.587,295.7,545.4,291.4
2023-12-23T07:03:07,2420,42.8014,5.9826,4330,272,186.417,57.085,13.303,36.046,36.626,41.206,4.581,295.7,545.4,291.5
2023-12-23T07:06:07,2420,42.8014,5.9826,4330,272,186.579,57.134,13.303,36.035,36.615,41.202,4.587,295.8,545.4,291.5
2023-12-23T07:09:07,2420,42.8014,5.9826,4330,272,186.433,57.091,13.304,36.045,36.625,41.211,4.586,295.7,545.4,291.4
2023-12-23T07:12:07,2420,42.8014,5.9826,4330,272,186.554,57.128,13.303,36.036,36.617,41.202,4.586,295.7,545.3,291.4
2023-12-23T07:15:07,2420,42.8014,5.9826,4330,272,186.470,57.105,13.306,36.041,36.621,41.210,4.588,295.8,545.4,291.4
2023-12-23T07:18:07,2420,42.8014,5.9826,4330,272,186.414,57.088,13.306,36.045,36.625,41.211,4.587,295.7,545.3,291.4
2023-12-23T07:21:07,2420,42.8014,5.9826,4330,272,186.271,57.044,13.305,36.054,36.634,41.219,4.585,295.7,545.4,291.4
2023-12-23T07:24:08,2420,42.8014,5.9826,4330,272,186.552,57.128,13.304,36.036,36.616,41.206,4.589,295.8,545.4,291.4
2023-12-23T07:27:08,2420,42.8014,5.9826,4330,272,186.643,57.154,13.303,36.032,36.612,41.199,4.587,295.7,545.3,291.5
2023-12-23T07:30:08,2420,42.8014,5.9826,4330,272,186.572,57.134,13.304,36.036,36.616,41.200,4.585,295.7,545.4,291.4
2023-12-23T07:33:07,2420,42.8014,5.9826,4330,272,186.476,57.104,13.304,36.042,36.622,41.209,4.587,295.6,545.3,291.4
2023-12-23T07:36:07,2420,42.8014,5.9826,4330,272,186.520,57.125,13.309,36.036,36.616,41.207,4.591,295.7,545.4,291.3
2023-12-23T07:39:08,2420,42.8014,5.9826,4330,272,186.624,57.152,13.305,36.031,36.611,41.200,4.589,295.7,545.4,291.4
2023-12-23T07:42:08,2420,42.8014,5.9826,4330,272,186.189,57.019,13.306,36.060,36.640,41.224,4.584,295.8,545.4,291.4
2023-12-23T07:45:08,2420,42.8014,5.9826,4330,272,186.391,57.080,13.305,36.046,36.626,41.215,4.588,295.8,545.3,291.4
2023-12-23T07:48:08,2420,42.8014,5.9826,4330,272,186.516,57.119,13.306,36.038,36.618,41.204,4.586,295.8,545.4,291.4
2023-12-23T07:51:07,2420,42.8014,5.9826,4330,272,186.513,57.116,13.304,36.040,36.620,41.208,4.588,295.8,545.4,291.4
2023-12-23T07:54:07,2420,42.8014,5.9826,4330,272,186.473,57.106,13.305,36.041,36.621,41.210,4.589,295.7,545.3,291.4
2023-12-23T07:57:07,2420,42.8014,5.9826,4330,272,186.669,57.166,13.305,36.028,36.608,41.199,4.591,295.7,545.3,291.4
2023-12-23T08:00:07,2420,42.8014,5.9826,4330,272,186.500,57.114,13.305,36.040,36.620,41.207,4.587,295.7,545.4,291.4
2023-12-23T08:03:07,2420,42.8014,5.9826,4330,272,186.617,57.150,13.306,36.031,36.611,41.198,4.587,295.7,545.3,291.4
2023-12-23T08:06:07,2420,42.8014,5.9826,4330,272,186.426,57.091,13.305,36.045,36.625,41.216,4.591,295.8,545.4,291.4
2023-12-23T08:09:08,2420,42.8014,5.9826,4330,272,186.294,57.049,13.304,36.053,36.633,41.220,4.587,295.7,545.3,291.4
2023-12-23T08:12:08,2420,42.8014,5.9826,4330,272,186.460,57.100,13.304,36.042,36.622,41.208,4.585,295.7,545.3,291.4
2023-12-23T08:15:08,2420,42.8014,5.9826,4330,272,186.535,57.122,13.304,36.038,36.618,41.208,4.590,295.7,545.3,291.4
2023-12-23T08:18:07,2420,42.8014,5.9826,4330,272,186.405,57.085,13.305,36.045,36.625,41.215,4.590,295.7,545.3,291.4
2023-12-23T08:21:07,2420,42.8014,5.9826,4330,272,186.248,57.038,13.306,36.056,36.636,41.221,4.585,295.8,545.3,291.4
2023-12-23T08:24:07,2420,42.8014,5.9826,4330,272,186.205,57.023,13.305,36.059,36.639,41.223,4.584,295.8,545.4,291.4
2023-12-23T08:27:07,2420,42.8014,5.9826,4330,272,186.460,57.101,13.305,36.042,36.622,41.214,4.592,295.8,545.3,291.4
2023-12-23T08:30:08,2420,42.8014,5.9826,4330,272,186.331,57.062,13.305,36.050,36.630,41.214,4.584,295.7,545.3,291.4
2023-12-23T08:33:07,2420,42.8014,5.9826,4330,272,186.670,57.166,13.305,36.029,36.609,41.198,4.589,295.7,545.4,291.4
2023-12-23T08:36:08,2420,42.8014,5.9826,4330,272,186.544,57.127,13.305,36.037,36.617,41.205,4.588,295.8,545.4,291.4
2023-12-23T08:39:08,2420,42.8014,5.9826,4330,272,186.375,57.075,13.305,36.048,36.628,41.213,4.585,295.8,545.3,291.4
2023-12-23T08:42:08,2420,42.8014,5.9826,4330,272,186.318,57.057,13.305,36.051,36.631,41.216,4.585,295.9,545.3,291.4
2023-12-23T08:45:07,2420,42.8014,5.9826,4330,272,186.466,57.102,13.305,36.042,36.622,41.212,4.590,295.8,545.3,291.4
2023-12-23T08:48:07,2420,42.8014,5.9826,4330,272,186.364,57.073,13.306,36.048,36.628,41.216,4.588,295.8,545.4,291.4
2023-12-23T08:51:07,2420,42.8014,5.9826,4330,272,186.274,57.046,13.307,36.053,36.633,41.223,4.590,295.7,545.3,291.3
2023-12-23T08:54:07,2420,42.8014,5.9826,4330,272,186.432,57.094,13.306,36.044,36.624,41.209,4.585,295.8,545.3,291.3
2023-12-23T08:57:08,2420,42.8014,5.9826,4330,272,186.337,57.067,13.307,36.049,36.629,41.221,4.592,295.8,545.3,291.3
2023-12-23T09:00:08,2420,42.8014,5.9826,4330,272,186.488,57.112,13.307,36.040,36.620,41.208,4.588,295.7,545.3,291.3
2023-12-23T09:03:07,2420,42.8014,5.9826,4330,272,186.592,57.143,13.306,36.033,36.613,41.202,4.589,295.8,545.3,291.4
2023-12-23T09:06:07,2420,42.8014,5.9826,4330,272,186.286,57.052,13.309,36.052,36.632,41.215,4.583,295.8,545.3,291.3
2023-12-23T09:09:07,2420,42.8014,5.9826,4330,272,186.313,57.059,13.308,36.050,36.630,41.220,4.589,295.8,545.3,291.3
2023-12-23T09:12:08,2420,42.8014,5.9826,4330,272,186.149,57.010,13.309,36.061,36.640,41.221,4.581,295.8,545.3,291.3
2023-12-23T09:15:08,2420,42.8014,5.9826,4330,272,186.230,57.033,13.307,36.056,36.636,41.223,4.587,295.7,545.3,291.3
2023-12-23T09:18:08,2420,42.8014,5.9826,4330,272,186.244,57.035,13.305,36.056,36.636,41.221,4.585,295.8,545.3,291.4
2023-12-23T09:21:08,2420,42.8014,5.9826,4330,272,186.217,57.032,13.309,36.056,36.636,41.223,4.588,295.8,545.3,291.2
2023-12-23T09:24:07,2420,42.8014,5.9826,4330,272,186.360,57.074,13.307,36.048,36.628,41.213,4.585,295.9,545.4,291.3
2023-12-23T09:27:07,2420,42.8014,5.9826,4330,272,186.233,57.035,13.307,36.056,36.635,41.220,4.584,295.8,545.4,291.3
2023-12-23T09:30:08,2420,42.8014,5.9826,4330,272,186.228,57.033,13.307,36.057,36.637,41.226,4.590,295.8,545.3,291.3
2023-12-23T09:33:07,2420,42.8014,5.9826,4330,272,186.096,56.993,13.307,36.065,36.645,41.228,4.583,295.9,545.3,291.3
2023-12-23T09:36:07,2420,42.8014,5.9826,4330,272,186.465,57.107,13.308,36.040,36.620,41.207,4.586,295.8,545.3,291.3
2023-12-23T09:39:08,2420,42.8014,5.9826,4330,272,186.303,57.057,13.308,36.051,36.631,41.217,4.586,295.8,545.3,291.3
2023-12-23T09:42:08,2420,42.8014,5.9826,4330,272,186.227,57.031,13.306,36.057,36.637,41.225,4.588,295.8,545.3,291.4
2023-12-23T09:45:08,2420,42.8014,5.9826,4330,272,186.106,56.994,13.306,36.065,36.644,41.229,4.585,295.9,545.3,291.4
2023-12-23T09:48:07,2420,42.8014,5.9826,4330,272,186.270,57.043,13.305,36.054,36.634,41.222,4.588,295.8,545.4,291.4
2023-12-23T09:51:07,2420,42.8014,5.9826,4330,272,186.397,57.082,13.305,36.047,36.627,41.217,4.590,295.8,545.3,291.4
2023-12-23T09:54:07,2420,42.8014,5.9826,4330,272,186.450,57.104,13.310,36.041,36.621,41.210,4.589,295.8,545.3,291.2
2023-12-23T09:57:07,2420,42.8014,5.9826,4330,272,186.204,57.028,13.309,36.057,36.636,41.223,4.587,295.7,545.3,291.3
2023-12-23T10:00:08,2420,42.8014,5.9826,4330,272,186.101,56.994,13.307,36.065,36.644,41.229,4.585,295.8,545.3,291.3